Meadow Lake, CO

10:52 AM MDT on March 28, 2017 (GMT -0600)
Meadow Lake

Weather History for KFLY - October, 2012

Change the Weather History Date:

Wednesday, October 3, 2012

  Actual Average (KCOS) Record (KCOS)
Temperature  
Mean Temperature 58 °F -  
Max Temperature 81 °F 69 °F 87 °F (1935)
Min Temperature 34 °F 41 °F 23 °F (1959)
Degree Days  
Heating Degree Days 8    
Growing Degree Days 8 (Base 50)    
Moisture  
Dew Point 25 °F    
Average Humidity 34    
Maximum Humidity 81    
Minimum Humidity 10    
Precipitation  
Precipitation 0.00 in - - ()
Sea Level Pressure  
Sea Level Pressure 30.08 in    
Wind  
Wind Speed 11 mph (NW)    
Max Wind Speed 32 mph    
Max Gust Speed 46 mph    
Visibility 10 miles    
Events      
Averages and records for this station are not official NWS values.
T = Trace of Precipitation, MM = Missing Value Source: NWS Daily Summary

Daily Weather History Graph

Daily Weather History Graph

Search for Another Location

Airport or City:

Trip Planner

Search our weather history database for the weather conditions in past years. The results will help you decide how hot, cold, wet, or windy it might be!

Date:

Astronomy

Oct. 03, 2012 Rise Set
Actual Time 6:56 AM MDT 6:36 PM MDT
Civil Twilight 6:29 AM MDT 7:03 PM MDT
Nautical Twilight 5:59 AM MDT 7:34 PM MDT
Astronomical Twilight 5:27 AM MDT 8:05 PM MDT
Moon 8:33 PM MDT (10/3) 10:20 AM MDT (10/3)
Length of Visible Light 12h 33m
Length of Day
11h 40m
Waning Gibbous, 88% of the Moon is Illuminated
Oct 3
Waning Gibbous
Oct 8
Last Quarter
Oct 15
New
Oct 21
First Quarter
Oct 29
Full

Hourly Weather History & Observations

Time (MDT) Temp. Windchill Dew Point Humidity Pressure Visibility Wind Dir Wind Speed Gust Speed Precip Events Conditions
12:12 AM 46.0 °F 43.1 °F 32.7 °F 60% 30.06 in 10.0 mi North 5.8 mph - N/A   Clear
12:32 AM 43.7 °F 39.7 °F 32.2 °F 64% 30.05 in 10.0 mi West 6.9 mph - N/A   Clear
12:52 AM 45.1 °F 42.0 °F 31.6 °F 59% 30.05 in 10.0 mi West 5.8 mph - N/A   Clear
1:12 AM 45.5 °F 41.8 °F 30.7 °F 56% 30.05 in 10.0 mi NW 6.9 mph - N/A   Clear
1:32 AM 46.6 °F - 31.3 °F 55% 30.05 in 10.0 mi West 8.1 mph 17.3 mph N/A   Clear
1:52 AM 50.0 °F - 29.1 °F 45% 30.06 in 10.0 mi South 6.9 mph - N/A   Clear
2:12 AM 53.2 °F - 26.1 °F 35% 30.06 in 10.0 mi NNW 5.8 mph - N/A   Clear
2:32 AM 49.6 °F - 27.9 °F 43% 30.05 in 10.0 mi NNW 9.2 mph - N/A   Clear
2:52 AM 48.7 °F - 27.7 °F 44% 30.05 in 10.0 mi WNW 11.5 mph 17.3 mph N/A   Clear
3:12 AM 52.2 °F - 25.9 °F 36% 30.04 in 10.0 mi WNW 9.2 mph 17.3 mph N/A   Clear
3:32 AM 51.1 °F - 25.3 °F 37% 30.04 in 10.0 mi NNW 6.9 mph - N/A   Clear
3:52 AM 51.1 °F - 26.6 °F 39% 30.04 in 10.0 mi WNW 11.5 mph 18.4 mph N/A   Clear
4:12 AM 52.5 °F - 25.3 °F 35% 30.04 in 10.0 mi NNW 10.4 mph - N/A   Clear
4:52 AM 54.9 °F - 25.0 °F 32% 30.06 in 10.0 mi NNW 10.4 mph - N/A   Clear
5:12 AM 54.1 °F - 25.3 °F 33% 30.06 in 10.0 mi NNW 11.5 mph - N/A   Clear
5:32 AM 56.5 °F - 25.5 °F 30% 30.06 in 10.0 mi WNW 12.7 mph 18.4 mph N/A   Clear
6:12 AM 53.6 °F - 25.3 °F 34% 30.06 in 10.0 mi WNW 9.2 mph - N/A   Clear
6:32 AM 50.9 °F - 25.7 °F 38% 30.06 in 10.0 mi West 18.4 mph - N/A   Clear
6:52 AM 54.7 °F - 24.8 °F 32% 30.06 in 10.0 mi West 15.0 mph 19.6 mph N/A   Clear
7:12 AM 54.3 °F - 25.3 °F 33% 30.06 in 10.0 mi WNW 12.7 mph 17.3 mph N/A   Clear
7:32 AM 57.0 °F - 25.2 °F 29% 30.06 in 10.0 mi NW 11.5 mph - N/A   Clear
7:52 AM 60.3 °F - 25.3 °F 26% 30.06 in 10.0 mi NNW 9.2 mph - N/A   Clear
8:12 AM 62.4 °F - 26.2 °F 25% 30.07 in 10.0 mi NNW 10.4 mph - N/A   Clear
8:32 AM 65.3 °F - 25.9 °F 23% 30.07 in 10.0 mi WNW 9.2 mph - N/A   Clear
8:52 AM 67.5 °F - 23.5 °F 19% 30.07 in 10.0 mi WNW 11.5 mph 21.9 mph N/A   Clear
9:12 AM 68.9 °F - 23.4 °F 18% 30.07 in 10.0 mi WNW 9.2 mph - N/A   Clear
9:32 AM 69.4 °F - 23.2 °F 17% 30.07 in 10.0 mi WNW 11.5 mph 19.6 mph N/A   Clear
9:52 AM 71.1 °F - 23.0 °F 16% 30.07 in 10.0 mi WNW 11.5 mph 18.4 mph N/A   Clear
10:12 AM 71.6 °F - 21.4 °F 15% 30.07 in 10.0 mi WNW 11.5 mph 24.2 mph N/A   Clear
10:32 AM 72.5 °F - 20.3 °F 14% 30.06 in 10.0 mi WNW 11.5 mph 16.1 mph N/A   Clear
10:52 AM 73.6 °F - 20.5 °F 14% 30.06 in 10.0 mi WNW 10.4 mph 17.3 mph N/A   Clear
11:12 AM 74.1 °F - 19.9 °F 13% 30.06 in 10.0 mi WNW 10.4 mph 17.3 mph N/A   Clear
11:32 AM 73.9 °F - 19.6 °F 13% 30.06 in 10.0 mi West 9.2 mph - N/A   Clear
11:52 AM 74.8 °F - 17.8 °F 12% 30.05 in 10.0 mi WSW 11.5 mph 18.4 mph N/A   Clear
12:12 PM 75.4 °F - 19.9 °F 12% 30.05 in 10.0 mi West 11.5 mph 25.3 mph N/A   Clear
12:32 PM 75.7 °F - 20.5 °F 13% 30.04 in 10.0 mi West 9.2 mph 26.5 mph N/A   Clear
12:52 PM 76.5 °F - 19.6 °F 12% 30.03 in 10.0 mi WNW 10.4 mph 25.3 mph N/A   Clear
1:12 PM 76.3 °F - 19.9 °F 12% 30.02 in 10.0 mi SW 4.6 mph - N/A   Scattered Clouds
1:32 PM 76.3 °F - 19.6 °F 12% 30.01 in 10.0 mi East 4.6 mph - N/A   Clear
1:52 PM 77.0 °F - 19.8 °F 12% 30.00 in 10.0 mi Calm Calm - N/A   Clear
2:12 PM 79.0 °F - 20.7 °F 11% 29.99 in 10.0 mi WSW 8.1 mph - N/A   Clear
2:32 PM 78.1 °F - 19.6 °F 11% 29.98 in 10.0 mi SSW 6.9 mph 25.3 mph N/A   Clear
2:52 PM 74.5 °F - 19.8 °F 13% 29.98 in 10.0 mi South 12.7 mph 17.3 mph N/A   Clear
3:12 PM 76.3 °F - 20.3 °F 12% 29.98 in 10.0 mi SE 16.1 mph 19.6 mph N/A   Clear
3:32 PM 78.8 °F - 19.9 °F 11% 29.98 in 10.0 mi West 11.5 mph 17.3 mph N/A   Clear
3:52 PM 81.7 °F - 19.8 °F 10% 30.00 in 10.0 mi North 10.4 mph 24.2 mph N/A   Clear
4:12 PM 79.7 °F - 21.0 °F 11% 30.00 in 10.0 mi ENE 10.4 mph - N/A   Clear
4:32 PM 77.4 °F - 21.2 °F 12% 30.00 in 10.0 mi NE 12.7 mph - N/A   Clear
4:52 PM 75.7 °F - 21.2 °F 13% 30.01 in 10.0 mi North - - N/A   Clear
5:12 PM 74.8 °F - 21.0 °F 13% 30.02 in 10.0 mi NE 12.7 mph - N/A   Clear
5:32 PM 73.6 °F - 21.2 °F 14% 30.03 in 10.0 mi NE 10.4 mph - N/A   Clear
5:52 PM 72.0 °F - 21.2 °F 15% 30.04 in 10.0 mi NE 9.2 mph - N/A   Clear
6:12 PM 69.1 °F - 22.8 °F 17% 30.04 in 10.0 mi NNE 6.9 mph - N/A   Clear
6:32 PM 66.4 °F - 23.2 °F 19% 30.06 in 10.0 mi NNE 6.9 mph - N/A   Clear
6:52 PM 63.7 °F - 26.6 °F 25% 30.08 in 10.0 mi NNE 24.2 mph 36.8 mph N/A   Clear
7:12 PM 57.7 °F - 29.8 °F 35% 30.10 in 10.0 mi NNE 26.5 mph 34.5 mph N/A   Clear
7:32 PM 54.9 °F - 31.8 °F 42% 30.13 in 10.0 mi NNE 21.9 mph 31.1 mph N/A   Clear
7:52 PM 52.0 °F - 32.2 °F 47% 30.16 in 10.0 mi North 27.6 mph 36.8 mph N/A   Clear
8:12 PM 48.7 °F - 32.4 °F 53% 30.18 in 10.0 mi North 26.5 mph 40.3 mph N/A   Clear
8:32 PM 46.6 °F - 32.2 °F 57% 30.19 in 10.0 mi North 32.2 mph 39.1 mph N/A   Clear
8:52 PM 44.8 °F 34.8 °F 32.0 °F 61% 30.21 in 10.0 mi North 31.1 mph 46.0 mph N/A   Clear
9:12 PM 42.8 °F 32.3 °F 32.0 °F 66% 30.21 in 10.0 mi North 29.9 mph 43.7 mph N/A   Clear
9:32 PM 41.5 °F 31.2 °F 31.8 °F 68% 30.22 in 10.0 mi North 26.5 mph 41.4 mph N/A   Clear
9:52 PM 40.3 °F 28.9 °F 31.8 °F 72% 30.23 in 10.0 mi North 29.9 mph 42.6 mph N/A   Clear
10:12 PM 38.7 °F 26.9 °F 31.6 °F 76% 30.24 in 10.0 mi North 28.8 mph 38.0 mph N/A   Clear
10:32 PM 37.8 °F 25.7 °F 31.5 °F 78% 30.25 in 10.0 mi North 28.8 mph 35.7 mph N/A   Clear
10:52 PM 37.0 °F 24.3 °F 30.9 °F 79% 30.25 in 10.0 mi North 31.1 mph 41.4 mph N/A   Clear
11:12 PM 35.8 °F 22.3 °F 30.6 °F 81% 30.25 in 10.0 mi North 32.2 mph 42.6 mph N/A   Clear
11:32 PM 34.7 °F 21.5 °F 28.9 °F 79% 30.26 in 10.0 mi North 28.8 mph 42.6 mph N/A   Clear
11:52 PM 34.7 °F 22.0 °F 28.9 °F 79% 30.26 in 10.0 mi North 26.5 mph 41.4 mph N/A   Clear